Flag for Canada Weather past 2 weeks in Delta, British Columbia, Canada

Now
61 °F

Scattered clouds.


Feels Like: 61 °F
Forecast: 53 / 67 °F
Wind: 13 mph from Southeast

Location: Vancouver International Air-Port

Current Time: May 23, 2015 at 8:20:36 PM

Latest Report: May 23, 2015 at 7:00 PM


Visibility: 20 mi

Pressure: 30.12 "Hg

Humidity: 72%

Dew point: 52 °F

Location of DeltaLocation

Historic Weather in Delta — Graph

°F

Delta temperature yesterday

Maximum temperature yesterday: 66 °F (at 2:00 PM)
Minimum temperature yesterday: 55 °F (at 4:00 AM)
Average temperature yesterday: 61 °F

Past Weeks' High & Low Weather Summary

 TemperatureHumidityPressure
High72 °F (May 9, 4:00 PM)100% (May 18, 5:00 AM)30.16 "Hg (May 18, 5:00 AM)
Low50 °F (May 9, 5:00 AM)47% (May 9, 4:00 PM)29.78 "Hg (May 21, 5:00 PM)
Average59 °F78%29.96 "Hg
* Reported May 8 7:00 PM — May 23 7:00 PM, Delta, Weather by CustomWeather, © 2015

Note: Actual official high and low records may vary slightly from our data, if they occured in-between our weather recording intervals... More about our weather records

Advertising

Delta weather history for previous 24 hours

 ConditionsComfort  
Time TempWeatherWind HumidityBarometerVisibility
7:00 PM
Sat, May 23
61 °FScattered clouds.13 mph72%30.12 "Hg20 mi
6:00 PM63 °FScattered clouds.8 mph68%30.13 "Hg15 mi
5:00 PM64 °FScattered clouds.12 mph68%30.14 "Hg15 mi
4:00 PM64 °FBroken clouds.8 mph64%30.15 "Hg12 mi
3:00 PM61 °FLight rain. Mostly cloudy.6 mph72%30.16 "Hg12 mi
2:54 PM63 °FSprinkles. Mostly cloudy.9 mph68%30.16 "Hg12 mi
2:00 PM63 °FCloudy.5 mph68%30.16 "Hg12 mi
1:00 PM63 °FMostly cloudy.5 mph68%30.16 "Hg12 mi
12:00 PM61 °FOvercast.8 mph72%30.16 "Hg12 mi
11:00 AM59 °FOvercast.7 mph77%30.16 "Hg12 mi
10:00 AM57 °FMore clouds than sun.9 mph82%30.16 "Hg12 mi
9:00 AM57 °FMostly cloudy.10 mph82%30.14 "Hg12 mi
8:00 AM55 °FMostly cloudy.10 mph88%30.13 "Hg12 mi
7:00 AM55 °FMostly cloudy.6 mph88%30.12 "Hg12 mi
6:00 AM55 °FMostly cloudy.6 mph88%30.11 "Hg12 mi
5:00 AM55 °FMostly cloudy.7 mph88%30.10 "Hg15 mi
4:00 AM55 °FMostly cloudy.9 mph88%30.09 "Hg20 mi
3:00 AM55 °FOvercast.8 mph88%30.08 "Hg20 mi
2:00 AM55 °FPassing clouds.9 mph88%30.07 "Hg20 mi
1:00 AM55 °FPassing clouds.7 mph88%30.06 "Hg20 mi
12:00 AM57 °FPassing clouds.9 mph82%30.04 "Hg20 mi
11:00 PM
Fri, May 22
55 °FPartly cloudy.10 mph88%30.03 "Hg20 mi
10:00 PM57 °FPassing clouds.8 mph82%30.01 "Hg20 mi
9:00 PM59 °FScattered clouds.10 mph77%30.00 "Hg20 mi
8:00 PM61 °FScattered clouds.10 mph72%29.98 "Hg20 mi
Weather by CustomWeather, © 2015

See weather overviewHow to use our weather pages